FW5274 Weather Reports


time (UTC)temp
C
wind
direction
speed
KPH
gust
KPH
rain 1hr
cm
rain 24hr
cm
rain mn
cm
humidity
%
barometer
mb
20260505224536 26 40 8.0 16.1 0.00 0.00 0.00 38 1015.7
20260505223035 26 53 4.8 11.3 0.00 0.00 0.00 38 1015.8
20260505221606 25 39 6.4 12.9 0.00 0.00 0.00 39 1015.9
20260505220032 25 42 6.4 14.5 0.00 0.00 0.00 40 1016.0
20260505214537 25 44 8.0 16.1 0.00 0.00 0.00 40 1016.1
20260505213034 24 41 6.4 16.1 0.00 0.00 0.00 40 1016.2
20260505211531 24 56 4.8 14.5 0.00 0.00 0.00 43 1016.5
20260505204537 24 53 6.4 12.9 0.00 0.00 0.00 43 1016.5
20260505201544 23 44 6.4 14.5 0.00 0.00 0.00 45 1016.7
20260505200038 23 43 8.0 16.1 0.00 0.00 0.00 46 1016.7
20260505194535 23 37 6.4 14.5 0.00 0.00 0.00 46 1016.8
20260505193031 23 28 4.8 11.3 0.00 0.00 0.00 48 1016.8
20260505191533 22 46 4.8 12.9 0.00 0.00 0.00 49 1016.8
20260505190036 22 51 4.8 14.5 0.00 0.00 0.00 49 1017.0
20260505184535 22 64 6.4 12.9 0.00 0.00 0.00 52 1017.1
20260505183036 21 61 6.4 11.3 0.00 0.00 0.00 53 1017.0
20260505181608 21 60 6.4 14.5 0.00 0.00 0.00 54 1016.9
20260505180033 20 64 4.8 14.5 0.00 0.00 0.00 55 1016.9
20260505174531 20 57 6.4 12.9 0.00 0.00 0.00 57 1016.9
20260505173030 20 44 4.8 11.3 0.00 0.00 0.00 58 1016.9
20260505171605 19 42 6.4 14.5 0.00 0.00 0.00 60 1016.8
20260505170029 18 46 6.4 12.9 0.00 0.00 0.00 61 1016.8
20260505164532 18 43 4.8 11.3 0.00 0.00 0.00 62 1016.8
20260505163036 17 51 4.8 9.7 0.00 0.00 0.00 63 1016.7
20260505161536 17 57 4.8 11.3 0.00 0.00 0.00 65 1016.8
20260505153034 16 91 3.2 8.0 0.00 0.00 0.00 71 1016.3
20260505151537 15 111 1.6 6.4 0.00 0.00 0.00 74 1016.4
20260505130107 9 125 3.2 6.4 0.00 0.00 0.00 85 1015.0
20260505124532 10 151 3.2 6.4 0.00 0.00 0.00 84 1014.8
20260505123036 10 97 0.0 6.4 0.00 0.00 0.00 83 1014.7
20260505121535 10 105 4.8 6.4 0.00 0.00 0.00 82 1014.6
20260505120036 11 130 4.8 6.4 0.00 0.00 0.00 81 1014.7
20260505113035 11 169 0.0 4.8 0.00 0.00 0.00 79 1014.5
20260505111537 10 289 0.0 6.4 0.00 0.00 0.00 80 1014.4
20260505101536 11 247 3.2 4.8 0.00 0.00 0.00 77 1014.1
20260505100044 12 316 1.6 6.4 0.00 0.00 0.00 77 1014.1
20260505094536 12 12 1.6 4.8 0.00 0.00 0.00 75 1014.0
20260505093143 12 22 1.6 4.8 0.00 0.00 0.00 75 1014.1
20260505091608 12 22 4.8 8.0 0.00 0.00 0.00 74 1014.0
20260505084616 13 36 4.8 9.7 0.00 0.00 0.00 72 1013.9
20260505083034 13 50 4.8 8.0 0.00 0.00 0.00 72 1013.9
20260505081530 13 26 6.4 9.7 0.00 0.00 0.00 71 1013.9
20260505080051 13 31 4.8 8.0 0.00 0.00 0.00 70 1013.9
20260505074530 13 47 4.8 9.7 0.00 0.00 0.00 68 1013.9
20260505073106 15 29 4.8 8.0 0.00 0.00 0.00 66 1013.7
20260505064534 16 305 4.8 11.3 0.00 0.00 0.00 61 1013.5
20260505061536 16 309 6.4 16.1 0.00 0.00 0.00 57 1013.5
20260505060036 16 317 6.4 17.7 0.00 0.00 0.00 57 1013.5
20260505054536 16 313 6.4 16.1 0.00 0.00 0.00 56 1013.4
20260505053032 17 320 3.2 14.5 0.00 0.00 0.00 53 1013.4
20260505051531 17 321 6.4 12.9 0.00 0.00 0.00 52 1013.2
20260505041642 18 298 16.1 29.0 0.00 0.00 0.00 45 1012.5
20260505040049 18 300 16.1 37.0 0.00 0.00 0.00 44 1012.3
20260505034528 18 302 14.5 29.0 0.00 0.00 0.00 43 1012.1
20260505033030 19 305 12.9 27.4 0.00 0.00 0.00 41 1012.0
20260505021535 22 314 12.9 24.1 0.00 0.00 0.00 32 1011.6
20260505014531 23 306 16.1 32.2 0.00 0.00 0.00 30 1011.4
20260505013030 24 306 16.1 32.2 0.00 0.00 0.00 29 1011.6
20260505011535 25 316 16.1 30.6 0.00 0.00 0.00 29 1011.6
20260505010035 25 300 17.7 32.2 0.00 0.00 0.00 29 1011.5
20260505004535 26 318 14.5 29.0 0.00 0.00 0.00 27 1011.6
20260505003036 26 327 14.5 30.6 0.00 0.00 0.00 25 1011.6
20260505001529 26 324 12.9 24.1 0.00 0.00 0.00 25 1011.7
20260504234528 27 317 12.9 27.4 0.00 0.00 0.00 27 1011.7
20260504231535 27 33 9.7 17.7 0.00 0.00 0.00 28 1011.9
20260504230037 27 351 8.0 16.1 0.00 0.00 0.00 26 1012.0